Simultaneous Nadir Overpasses (SNOs) Predictions

Prediction of SNOs between GOES-16 and NOAA-19 Satellite Orbit:

Table of predicted SNOs for the next 14.0 days since TLE Epoch: 7/15/2023
Index Date Time (GOES-16) GOES-16 Lat,Lon NOAA-19 Lat,Lon Distance(km) Time Diff (sec)
1 07/16/2023 01:49:04 -0.02, -75.20 -0.58, -77.70 285.06 80
2 07/17/2023 01:37:01 -0.02, -75.20 0.06, -74.76 49.61 80
3 07/18/2023 01:24:58 -0.00, -75.20 0.76, -71.83 384.22 80
4 07/19/2023 13:59:39 -0.00, -75.21 1.01, -79.50 490.87 80
5 07/20/2023 13:47:36 -0.01, -75.22 0.29, -76.58 155.44 80
6 07/21/2023 13:32:53 -0.02, -75.22 -0.38, -73.64 180.28 80
7 07/24/2023 01:55:43 0.02, -75.24 -0.74, -78.43 365.08 80
8 07/25/2023 01:43:41 0.02, -75.25 -0.02, -75.51 28.91 80
9 07/26/2023 01:28:58 0.02, -75.26 0.65, -72.57 307.59 80
10 07/28/2023 13:51:32 0.00, -75.30 0.44, -77.30 227.92 80
